Norwood, MA

8:32 AM EDT on September 30, 2016 (GMT -0400)
Norwood Memorial

Weather History for KOWD - September, 2012

Change the Weather History Date:

Monday, September 3, 2012

  Actual Average Record
Temperature  
Mean Temperature 65 °F -  
Max Temperature 80 °F 76 °F 91 °F (1999)
Min Temperature 50 °F 52 °F 32 °F (1997)
Growing Degree Days 15 (Base 50)    
Moisture  
Dew Point 56 °F    
Average Humidity 82    
Maximum Humidity 96    
Minimum Humidity 50    
Precipitation  
Precipitation 0.01 in - - ()
Sea Level Pressure  
Sea Level Pressure 30.17 in    
Wind  
Wind Speed 1 mph (SE)    
Max Wind Speed 8 mph    
Max Gust Speed -    
Visibility 6 miles    
Events Fog    
Averages and records for this station are not official NWS values.
T = Trace of Precipitation, MM = Missing Value Source: NWS Daily Summary

Daily Weather History Graph

Daily Weather History Graph

Search for Another Location

Airport or City:

Trip Planner

Search our weather history database for the weather conditions in past years. The results will help you decide how hot, cold, wet, or windy it might be!

Date:

Astronomy

Sep. 03, 2012 Rise Set
Actual Time 6:12 AM EDT 7:14 PM EDT
Civil Twilight 5:43 AM EDT 7:42 PM EDT
Nautical Twilight 5:09 AM EDT 8:17 PM EDT
Astronomical Twilight 4:33 AM EDT 8:52 PM EDT
Moon 8:26 PM EDT (9/3) 9:22 AM EDT (9/3)
Length of Visible Light 13h 58m
Length of Day
13h 01m
Waning Gibbous, 90% of the Moon is Illuminated
Sep 3
Waning Gibbous
Sep 8
Last Quarter
Sep 15
New
Sep 22
First Quarter
Sep 29
Full

Hourly Weather History & Observations

Time (EDT) Temp. Heat Index Dew Point Humidity Pressure Visibility Wind Dir Wind Speed Gust Speed Precip Events Conditions
12:26 AM 55.4 °F - 53.6 °F 94% 30.15 in 0.2 mi Calm Calm - N/A Fog Fog
12:37 AM 55.4 °F - 53.6 °F 94% 30.15 in 0.2 mi Calm Calm - N/A Fog Fog
12:53 AM 55.0 °F - 53.1 °F 93% 30.15 in 0.2 mi Calm Calm - N/A Fog Fog
1:14 AM 55.4 °F - 53.6 °F 94% 30.15 in 1.0 mi Calm Calm - N/A   Mist
1:21 AM 55.4 °F - 53.6 °F 94% 30.15 in 0.5 mi Calm Calm - N/A Fog Fog
1:29 AM 53.6 °F - 51.8 °F 94% 30.15 in 0.5 mi Calm Calm - N/A Fog Fog
1:41 AM 55.4 °F - 53.6 °F 94% 30.15 in 1.0 mi Calm Calm - N/A   Mist
1:44 AM 55.4 °F - 51.8 °F 88% 30.15 in 0.8 mi Calm Calm - N/A   Mist
1:50 AM 53.6 °F - 51.8 °F 94% 30.15 in 2.0 mi Calm Calm - N/A   Mostly Cloudy
1:53 AM 54.0 °F - 52.0 °F 93% 30.15 in 5.0 mi Calm Calm - N/A   Mostly Cloudy
1:58 AM 53.6 °F - 51.8 °F 94% 30.15 in 2.0 mi Calm Calm - N/A   Scattered Clouds
2:01 AM 53.6 °F - 51.8 °F 94% 30.15 in 1.0 mi Calm Calm - N/A   Mist
2:26 AM 51.8 °F - 48.2 °F 88% 30.15 in 0.5 mi Calm Calm - N/A Fog Fog
2:53 AM 53.1 °F - 50.0 °F 89% 30.16 in 0.5 mi Calm Calm - N/A Fog Fog
3:14 AM 53.6 °F - 51.8 °F 94% 30.16 in 2.5 mi Calm Calm - N/A   Mostly Cloudy
3:17 AM 53.6 °F - 51.8 °F 94% 30.16 in 9.0 mi Calm Calm - N/A   Scattered Clouds
3:34 AM 51.8 °F - 48.2 °F 88% 30.17 in 2.5 mi Calm Calm - N/A   Partly Cloudy
3:40 AM 50.0 °F - 48.2 °F 94% 30.17 in 9.0 mi Calm Calm - N/A   Mostly Cloudy
3:53 AM 52.0 °F - 48.9 °F 89% 30.17 in 10.0 mi Calm Calm - N/A   Mostly Cloudy
4:06 AM 53.6 °F - 50.0 °F 88% 30.16 in 2.0 mi Calm Calm - N/A   Overcast
4:15 AM 53.6 °F - 51.8 °F 94% 30.16 in 4.0 mi Calm Calm - N/A   Overcast
4:20 AM 53.6 °F - 51.8 °F 94% 30.16 in 1.5 mi Calm Calm - N/A   Overcast
4:24 AM 53.6 °F - 51.8 °F 94% 30.16 in 0.8 mi Calm Calm - N/A   Mist
4:32 AM 53.6 °F - 51.8 °F 94% 30.17 in 0.5 mi Calm Calm - N/A Fog Fog
5:53 AM 60.1 °F - 57.9 °F 93% 30.18 in 0.2 mi Calm Calm - N/A Fog Fog
6:53 AM 61.0 °F - 59.0 °F 93% 30.20 in 0.2 mi Calm Calm - 0.01 in Fog Fog
7:45 AM 62.6 °F - 60.8 °F 94% 30.20 in 2.0 mi Calm Calm - N/A   Overcast
7:53 AM 62.1 °F - 61.0 °F 96% 30.20 in 4.0 mi Calm Calm - N/A   Overcast
8:10 AM 62.6 °F - 60.8 °F 94% 30.21 in 8.0 mi Calm Calm - N/A   Overcast
8:53 AM 64.0 °F - 61.0 °F 90% 30.22 in 10.0 mi Calm Calm - N/A   Overcast
9:21 AM 66.2 °F - 60.8 °F 83% 30.23 in 10.0 mi SE 4.6 mph - N/A   Overcast
9:53 AM 66.9 °F - 61.0 °F 81% 30.24 in 10.0 mi Calm Calm - N/A   Overcast
10:01 AM 66.2 °F - 60.8 °F 83% 30.23 in 10.0 mi Calm Calm - N/A   Overcast
10:53 AM 72.0 °F - 60.1 °F 66% 30.22 in 10.0 mi Calm Calm - N/A   Overcast
10:57 AM 73.4 °F - 60.8 °F 65% 30.22 in 10.0 mi NE 3.5 mph - N/A   Scattered Clouds
11:08 AM 71.6 °F - 59.0 °F 64% 30.22 in 10.0 mi Calm Calm - N/A   Mostly Cloudy
11:46 AM 73.4 °F - 59.0 °F 61% 30.20 in 10.0 mi Variable 3.5 mph - N/A   Scattered Clouds
11:53 AM 73.9 °F - 60.1 °F 62% 30.20 in 10.0 mi Calm Calm - N/A   Partly Cloudy
12:53 PM 75.0 °F - 59.0 °F 57% 30.20 in 10.0 mi Calm Calm - N/A   Scattered Clouds
1:53 PM 78.1 °F - 57.9 °F 50% 30.18 in 10.0 mi Variable 4.6 mph - N/A   Mostly Cloudy
2:53 PM 80.1 °F 81.1 °F 61.0 °F 52% 30.17 in 10.0 mi NE 6.9 mph - N/A   Mostly Cloudy
3:53 PM 78.1 °F - 61.0 °F 56% 30.16 in 10.0 mi NE 4.6 mph - N/A   Clear
4:53 PM 78.1 °F - 60.1 °F 54% 30.15 in 10.0 mi Variable 4.6 mph - N/A   Clear
5:53 PM 75.9 °F - 60.1 °F 58% 30.15 in 10.0 mi SSW 8.1 mph - N/A   Overcast
6:53 PM 72.0 °F - 59.0 °F 64% 30.15 in 10.0 mi South 5.8 mph - N/A   Clear
7:53 PM 68.0 °F - 57.0 °F 68% 30.16 in 10.0 mi SSE 4.6 mph - N/A   Clear
8:53 PM 66.0 °F - 55.9 °F 70% 30.17 in 10.0 mi South 3.5 mph - N/A   Clear
9:53 PM 64.0 °F - 57.0 °F 78% 30.17 in 10.0 mi Calm Calm - N/A   Clear
10:53 PM 64.0 °F - 57.0 °F 78% 30.17 in 10.0 mi North - - N/A   Clear
11:53 PM 63.0 °F - 55.9 °F 78% 30.16 in 10.0 mi Calm Calm - N/A   Overcast